Kuchera_Ratio
0.0 0.0 0.0 0.0 0.0 0.0 0.0 0.0 0.0 0.0 0.0 0.0 0.0 0.0 0.0 0.0 0.0 0.0 0.0 0.0 0.0 0.0 0.0 0.0 0.0 0.0 0.0 0.0 0.0 0.0 0.0 0.0 0.0 0.0 0.0 0.0 0.6 0.8 2.9 0.0 0.8 1.5 2.9 3.1 2.8 6.1 7.9 0.0 0.0 0.0 0.0 0.0 0.0 0.0
0.0 0.0 0.0 0.0 0.0 0.0 0.0 0.0 0.0 0.0 0.0 0.0 0.0 0.0 0.0 0.0 0.0 0.0 0.0 0.0 0.0 0.0 0.0 0.0 0.0 0.0 0.0 0.0 0.0 0.0 0.0 0.0 0.0 0.0 0.0 0.0 0.0 0.3 1.5 3.8 0.0 0.6 0.0 0.0 0.0 0.0 0.0 0.0 0.0 0.0 0.0 0.0 0.0 0.0
0.0 0.0 0.0 0.0 0.0 0.0 0.0 0.0 0.0 0.0 0.0 0.0 0.0 0.0 0.0 0.0 0.0 0.0 0.0 0.0 0.0 0.0 0.0 0.0 0.0 0.0 0.0 0.0 0.0 0.0 0.0 0.0 0.0 0.0 0.0 0.0 1.4 0.0 0.0 0.0 0.1 0.0 0.0 0.0 0.0 0.0 0.0 0.0 0.0 0.0 0.0 0.0 0.0 0.0
0.0 0.0 0.0 0.0 0.0 0.0 0.0 0.0 0.0 0.0 0.0 0.0 0.0 0.0 0.0 0.0 0.0 0.0 0.0 0.0 0.0 0.0 0.0 0.0 0.0 0.0 0.0 0.0 0.0 0.0 0.0 0.0 0.0 0.0 0.0 0.0 0.0 0.0 0.0 0.0 0.0 0.0 0.0 0.0 0.0 0.0 0.0 0.0 0.0 0.0 0.0 0.0 0.0 0.0
0.0 0.0 0.0 0.0 0.0 0.0 0.0 0.0 0.0 0.0 0.0 0.0 0.0 0.0 0.0 0.0 0.0 0.0 0.0 0.0 0.0 0.0 0.0 0.0 0.0 0.0 0.0 0.0 0.0 0.0 0.0 0.0 0.0 0.0 0.0 0.0 0.0 0.0 0.0 0.0 0.0 0.0 0.0 0.0 0.0 0.0 0.0 0.0 0.0 0.0 0.0 0.0 0.0 0.0
0.0 0.0 0.0 0.0 0.0 0.0 0.0 0.0 0.0 0.0 0.0 0.0 0.0 0.0 0.0 0.0 0.0 0.0 0.0 0.0 0.0 0.0 0.0 0.1 0.0 0.0 0.0 0.0 0.0 0.0 0.0 0.0 0.0 0.0 0.0 0.0 0.0 0.0 0.0 0.0 0.0 0.0 0.0 0.0 0.0 0.0 0.0 0.0 0.0 0.0 0.0 0.0 0.0 0.0
0.0 0.0 0.0 0.0 0.0 0.0 0.0 0.0 0.0 0.0 0.0 0.0 0.0 0.0 0.0 0.0 0.0 0.0 0.0 0.0 0.0 0.0 0.0 1.4 0.0 0.0 0.0 0.0 0.0 0.0 0.0 0.0 0.0 0.0 0.0 0.0 0.0 0.0 0.0 0.0 0.0 0.0 0.0 0.0 0.0 0.0 0.0 0.0 0.0 0.0 0.0 0.0 0.0 0.0
0.0 0.0 0.0 0.0 0.0 0.0 0.0 0.0 0.0 0.0 0.0 0.0 0.0 0.0 0.0 0.0 0.0 0.0 0.0 0.0 0.0 0.0 0.0 2.6 2.4 0.0 0.0 0.0 0.0 0.0 0.0 0.0 0.0 0.0 0.0 0.0 0.0 0.0 0.0 0.0 0.0 0.0 0.0 0.0 0.0 0.0 0.0 0.0 0.0 0.0 0.0 0.0 0.0 0.0
0.0 0.0 0.0 0.0 0.0 0.0 0.0 0.0 0.0 0.0 0.0 0.0 0.0 0.0 0.0 0.0 0.0 0.0 0.0 0.0 0.0 0.0 0.0 1.9 3.7 5.5 0.0 0.0 0.0 0.0 0.0 0.0 0.0 0.0 0.0 0.0 0.0 0.6 0.0 0.0 0.0 0.0 0.0 0.0 0.0 0.0 0.0 0.0 0.0 0.0 0.0 0.0 0.0 0.0
0.0 0.0 0.0 0.0 0.0 0.0 0.0 0.0 0.0 0.0 0.0 0.0 0.0 0.0 0.0 0.0 0.0 0.0 0.0 0.0 0.0 0.0 0.0 0.5 0.0 1.5 0.0 0.0 0.5 0.0 0.2 1.5 4.8 0.8 0.0 2.0 1.0 0.0 0.0 0.0 0.0 0.0 0.0 0.0 0.0 0.0 0.0 0.0 0.0 0.0 0.0 0.0 0.0 0.0
0.0 0.0 0.0 0.0 0.0 0.0 0.0 0.0 0.0 0.0 0.0 0.0 0.0 0.0 0.0 0.0 0.0 0.0 1.0 2.1 1.0 5.0 0.0 0.0 0.0 1.4 0.0 1.5 0.8 1.5 3.2 4.7 6.3 3.9 2.9 6.1 5.5 0.0 0.0 0.0 0.0 0.0 0.0 0.0 0.0 0.0 0.0 0.0 0.0 0.0 0.0 0.0 0.0 0.0
0.0 0.0 0.0 0.0 0.0 0.0 0.0 0.0 0.0 0.0 2.0 2.9 4.0 0.0 0.0 0.0 0.2 4.1 3.3 5.4 4.5 5.3 1.9 0.8 0.0 0.0 0.0 0.0 1.4 1.7 2.6 5.1 9.2 3.2 6.3 8.8 0.0 0.0 0.0 0.0 0.0 0.0 0.0 0.0 0.0 0.0 0.0 0.0 0.0 0.0 0.0 0.0 0.0 0.4
0.0 0.0 0.0 0.0 0.0 0.0 0.0 0.0 0.0 0.0 0.0 0.0 2.6 4.6 4.7 4.7 7.9 8.1 10.5 8.2 8.0 4.8 1.5 1.4 4.1 0.0 1.5 1.0 3.3 4.3 7.8 8.3 4.9 9.9 9.0 0.1 0.0 0.0 0.0 0.0 0.0 0.0 0.0 0.0 0.0 0.0 0.0 0.0 0.0 0.0 0.0 0.6 0.9 1.8
0.0 0.0 0.0 0.0 0.0 0.0 0.0 0.0 0.0 0.0 5.6 7.2 8.0 9.8 8.3 9.3 9.6 8.2 5.0 4.8 1.1 1.8 3.5 0.0 2.6 2.3 1.0 3.8 3.6 7.2 9.2 8.5 11.0 11.6 6.3 0.0 0.0 0.0 1.2 0.4 0.0 0.5 0.0 0.0 0.0 0.0 0.0 0.0 0.2 0.5 0.4 1.5 1.8 3.2
0.0 0.0 0.0 0.0 0.0 0.0 0.0 0.0 0.0 1.0 6.4 8.8 8.0 9.4 8.1 9.5 8.3 7.1 5.2 3.2 0.1 0.4 0.0 1.5 1.6 3.0 4.6 6.4 6.9 8.7 12.5 12.4 10.8 6.1 0.0 0.0 0.0 0.6 2.2 1.5 1.0 1.1 0.0 0.3 0.0 0.3 0.2 0.6 1.4 3.2 4.3 4.5 4.1 5.1
0.0 0.0 0.0 0.0 0.0 0.0 0.0 0.0 1.6 1.6 7.8 8.6 8.2 9.3 6.8 9.5 9.8 7.6 5.3 1.9 1.0 0.0 0.0 0.0 2.1 6.2 6.8 6.6 8.2 8.1 9.9 8.2 0.6 0.0 0.0 0.4 0.8 2.9 2.7 1.8 1.6 0.0 0.0 0.4 1.0 0.7 1.2 1.8 2.3 3.7 5.6 6.5 6.8 6.6
0.0 0.8 0.0 0.0 0.0 0.0 0.0 3.8 5.5 7.8 8.0 8.2 10.0 7.0 7.7 8.2 7.5 6.6 4.2 2.5 0.0 0.0 1.0 2.0 7.7 8.0 9.1 8.9 9.2 8.8 3.4 0.0 0.0 0.0 0.0 1.1 2.8 4.3 3.5 2.8 2.4 1.9 1.7 1.8 1.9 2.5 2.4 3.2 3.8 4.9 5.2 7.2 7.5 8.5
1.4 0.3 0.0 0.0 0.0 0.0 1.9 6.4 8.2 8.3 11.2 9.8 10.4 9.5 5.6 7.4 8.7 6.9 3.9 0.0 1.2 1.2 2.5 2.5 4.8 7.8 7.1 6.9 5.5 0.9 0.0 0.0 0.0 0.0 0.5 2.1 4.9 4.6 3.6 3.5 3.0 1.7 2.0 2.6 2.1 2.6 3.2 4.2 4.6 5.1 5.8 8.2 9.0 10.5
0.0 0.0 0.0 0.0 0.0 3.8 8.8 8.1 8.2 12.2 11.6 9.5 9.9 8.1 7.2 5.7 4.5 3.0 1.9 0.6 1.8 0.0 1.6 3.1 5.1 6.0 4.7 2.7 0.3 0.0 0.0 0.4 1.3 0.3 2.3 5.1 4.8 4.5 4.2 3.1 2.6 2.9 2.8 3.0 3.6 4.2 5.4 5.4 4.7 6.5 8.0 10.0 9.7 12.3
0.0 0.0 0.0 0.0 0.0 6.9 12.7 12.7 7.1 10.8 12.7 10.8 8.1 8.9 8.7 8.6 7.0 5.7 5.7 3.9 1.6 0.0 3.7 4.9 6.3 6.1 4.5 3.5 1.7 0.7 0.8 2.8 2.4 2.2 4.4 7.6 5.9 4.8 4.4 3.5 3.5 3.8 4.2 5.4 5.4 5.3 6.3 7.7 8.8 9.9 10.7 11.8 12.1 13.2
0.7 1.6 0.0 3.7 4.3 6.8 12.2 13.7 13.6 11.1 11.1 12.0 9.2 8.9 9.1 7.8 7.9 7.8 7.6 4.8 4.9 7.6 7.1 8.1 7.0 5.9 5.7 4.2 3.5 3.3 2.4 4.2 4.9 4.6 4.3 6.4 8.2 4.8 4.7 4.7 4.1 4.1 3.4 5.4 6.3 7.7 8.5 8.4 10.3 11.6 12.1 13.1 13.8 14.3
4.1 0.0 6.4 7.1 9.5 10.3 13.3 10.8 14.1 11.2 12.1 11.5 11.3 10.2 10.6 10.4 9.3 9.2 7.7 10.1 12.1 12.5 11.7 9.5 7.7 6.7 5.9 6.1 4.9 4.8 4.7 4.7 5.2 5.8 5.7 7.2 9.0 6.4 5.9 5.2 5.2 5.1 5.3 5.8 6.4 7.9 9.8 11.2 12.3 13.0 13.5 13.9 14.5 15.2
3.2 6.9 9.6 11.4 13.0 13.1 13.3 10.8 14.0 13.9 14.9 14.0 12.5 13.5 13.6 12.9 12.2 8.8 13.4 13.5 13.9 12.4 12.3 11.6 10.8 8.5 7.6 8.3 8.9 8.8 6.9 7.5 9.4 9.3 9.4 8.2 6.6 6.2 6.4 6.5 5.4 4.2 7.1 8.8 10.1 10.2 11.5 12.5 13.3 14.1 14.5 14.9 15.2 15.5
4.0 12.8 13.6 14.5 15.2 16.0 14.5 14.3 13.6 14.1 14.1 14.8 15.2 15.8 15.2 14.5 13.0 13.7 15.6 15.9 14.9 14.2 13.3 13.1 12.3 11.4 11.1 10.9 10.2 10.9 11.2 9.1 8.6 9.1 8.5 7.0 8.0 9.6 8.6 8.4 8.6 7.9 7.5 9.5 11.4 12.5 13.1 13.7 14.5 15.0 15.4 15.8 16.4 16.6
14.1 16.0 15.4 16.2 16.0 16.5 17.0 16.9 17.2 17.3 17.5 15.9 16.6 16.4 15.6 14.4 15.0 16.9 18.2 16.7 16.6 15.7 15.0 14.7 13.6 13.4 12.6 12.3 12.4 12.8 12.7 10.1 11.6 10.1 11.5 8.3 6.8 9.6 10.6 10.7 11.1 11.0 11.5 11.0 12.7 13.4 14.1 14.9 15.6 16.1 16.6 16.6 16.9 17.3
16.8 16.3 16.7 16.6 17.2 17.6 17.9 18.5 18.3 18.4 17.5 17.3 16.1 14.9 14.6 15.2 18.8 20.1 19.3 18.8 18.6 17.2 16.3 15.8 15.1 14.8 14.4 14.2 13.8 13.9 13.8 12.6 10.5 8.0 11.8 10.7 9.0 5.9 7.1 9.5 11.9 12.3 12.2 13.3 13.2 14.2 15.1 16.0 16.5 16.9 17.2 17.3 16.0 17.9
17.0 17.0 16.9 14.1 17.0 17.2 17.7 17.7 17.1 18.6 18.7 19.1 17.3 16.9 16.2 19.0 21.0 20.8 19.8 19.7 18.7 18.4 18.1 17.4 16.8 16.2 15.6 15.4 15.3 15.1 14.6 13.7 11.3 10.0 10.6 12.4 12.9 12.4 11.3 10.7 12.7 13.4 14.0 14.8 14.7 14.9 15.5 16.6 17.3 17.7 17.8 18.1 18.4 18.7
16.9 17.1 17.6 17.7 17.6 17.6 17.6 18.1 18.5 19.1 19.4 18.0 17.4 20.2 20.4 21.2 21.4 21.4 21.1 19.9 19.9 19.3 18.0 17.3 16.5 16.3 16.5 16.3 15.7 15.3 15.0 14.4 13.2 12.7 13.0 13.7 13.7 13.9 14.2 14.7 15.0 14.0 15.7 15.6 15.7 16.2 16.3 16.7 17.4 18.0 18.4 18.7 18.9 19.2
17.4 17.5 17.2 18.1 17.9 17.8 17.8 18.1 18.2 18.8 19.4 19.7 20.2 21.1 21.2 21.4 21.4 21.6 20.9 20.6 19.4 17.9 18.1 18.3 18.0 16.9 16.5 16.3 16.3 16.0 15.5 14.9 13.9 14.2 13.3 15.0 15.9 15.8 16.1 16.3 16.5 16.4 16.0 15.8 14.2 16.7 17.2 17.6 18.1 18.5 19.1 19.4 19.5 19.5
18.2 18.1 18.9 18.3 17.9 18.0 18.2 18.2 18.5 18.6 18.8 19.4 20.1 20.8 21.3 21.6 21.8 20.7 21.1 21.2 20.7 20.2 19.2 17.8 17.1 17.0 17.5 17.1 17.2 17.0 16.8 16.3 15.8 15.0 14.6 15.2 16.0 16.6 17.0 17.3 17.4 17.6 16.8 16.4 16.4 16.0 14.4 19.0 19.3 19.5 19.7 19.7 19.7 19.8
19.0 18.5 19.1 18.7 18.4 18.5 18.4 18.6 18.8 18.9 18.9 19.1 19.6 20.2 21.0 21.9 21.9 21.3 21.7 21.4 21.1 18.6 18.5 18.6 18.4 17.5 17.2 17.5 17.2 16.9 17.2 17.3 16.3 15.8 15.6 16.5 17.1 17.1 17.6 18.2 18.2 18.3 18.4 18.7 19.0 19.2 19.3 19.5 19.6 19.8 20.1 20.1 20.1 20.1
19.3 19.2 19.4 19.2 19.5 19.4 19.4 19.4 19.4 19.1 19.3 19.4 19.7 20.1 20.2 20.4 20.5 21.3 21.3 21.1 19.7 20.1 17.6 18.5 19.2 19.1 18.4 18.0 17.3 16.5 16.0 16.2 16.4 16.5 16.7 16.9 17.7 18.3 18.8 18.7 18.7 18.8 19.1 19.3 19.4 19.5 19.7 19.8 20.0 20.2 20.4 20.4 20.5 20.6
19.9 20.2 20.2 19.5 19.8 20.0 19.9 19.6 19.7 19.3 19.3 19.2 19.0 18.9 18.9 19.0 19.2 19.8 20.1 20.1 20.1 20.0 19.8 19.8 19.4 18.9 18.8 18.5 17.8 17.5 17.5 17.9 16.6 14.6 14.9 15.6 16.3 17.8 19.4 19.5 19.6 19.5 19.5 19.6 19.9 20.2 20.4 20.6 20.7 20.7 20.6 20.8 21.0 21.3